Tracking 19170 objects as of 22-May-2018
HD Live streaming from Space Station
objects crossing your sky now

OPS 5644

Track OPS 5644 now!
10-day predictions
OPS 5644 is classified as:


NORAD ID: 10033
Int'l Code: 1977-044A
Perigee: 772.8 km
Apogee: 830.1 km
Inclination: 99.1 °
Period: 100.8 minutes
Semi major axis: 7172 km
RCS: Unknown
Launch date: June 5, 1977
Source: United States (US)
Launch site: AIR FORCE WESTERN TEST RANGE (AFWTR)
aabbcc
Your satellite tracking list
Your tracking list is empty




NASA's NSSDC Master Catalog

Two Line Element Set (TLE):
1 10033U 77044A   18138.86705305 0.00000060  00000-0  23438-4 0    07
2 10033  99.1083  12.8985 0039988 127.6204 232.3795 14.29223797    08
Source of the keplerian elements: McCants